TimeEDT,TemperatureF,Dew PointF,Humidity,Sea Level PressureIn,VisibilityMPH,Wind Direction,Wind SpeedMPH,Gust SpeedMPH,PrecipitationIn,Events,Conditions,WindDirDegrees,DateUTC
12:53 AM,73.4,69.8,88,29.96,10.0,NNW,3.5,-,N/A,,Clear,340,2012-10-07 04:53:00
1:53 AM,73.0,70.0,90,29.95,10.0,Calm,Calm,-,N/A,,Clear,0,2012-10-07 05:53:00
2:53 AM,73.4,69.8,88,29.95,10.0,Calm,Calm,-,N/A,,Clear,0,2012-10-07 06:53:00
3:53 AM,73.0,69.1,87,29.94,10.0,North,3.5,-,N/A,,Partly Cloudy,10,2012-10-07 07:53:00
4:53 AM,72.0,69.1,91,29.93,10.0,Calm,Calm,-,N/A,,Clear,0,2012-10-07 08:53:00
5:53 AM,71.1,68.0,90,29.94,10.0,North,4.6,-,N/A,,Clear,10,2012-10-07 09:53:00
6:53 AM,71.1,68.0,90,29.96,10.0,NNE,4.6,-,N/A,,Partly Cloudy,30,2012-10-07 10:53:00
7:53 AM,71.1,66.0,84,29.97,10.0,NNE,8.1,-,N/A,,Partly Cloudy,20,2012-10-07 11:53:00
8:53 AM,73.0,66.9,81,29.99,10.0,NNE,8.1,-,N/A,,Clear,30,2012-10-07 12:53:00
9:53 AM,78.1,66.0,66,29.99,10.0,NE,8.1,-,N/A,,Clear,40,2012-10-07 13:53:00
10:53 AM,82.9,66.9,58,30.00,10.0,NNE,5.8,-,N/A,,Clear,30,2012-10-07 14:53:00
11:53 AM,86.0,66.0,51,29.99,10.0,NE,6.9,-,N/A,,Clear,40,2012-10-07 15:53:00
12:53 PM,88.0,66.9,49,29.98,10.0,NNE,8.1,-,N/A,,Clear,30,2012-10-07 16:53:00
1:53 PM,87.1,66.9,51,29.96,10.0,NNW,5.8,-,N/A,,Mostly Cloudy,340,2012-10-07 17:53:00
2:53 PM,88.0,66.9,49,29.94,10.0,NW,8.1,-,N/A,,Mostly Cloudy,310,2012-10-07 18:53:00
3:53 PM,84.9,66.9,55,29.94,10.0,North,5.8,-,N/A,,Mostly Cloudy,360,2012-10-07 19:53:00
4:53 PM,84.0,70.0,63,29.93,10.0,South,10.4,-,N/A,,Mostly Cloudy,190,2012-10-07 20:53:00
5:53 PM,82.9,71.1,67,29.94,10.0,South,9.2,-,N/A,,Scattered Clouds,170,2012-10-07 21:53:00
6:53 PM,82.0,71.1,69,29.94,10.0,South,4.6,-,N/A,,Mostly Cloudy,170,2012-10-07 22:53:00
7:53 PM,80.1,72.0,76,29.95,10.0,Calm,Calm,-,N/A,,Overcast,0,2012-10-07 23:53:00
8:06 PM,80.6,68.0,65,29.96,10.0,NNE,9.2,-,N/A,,Overcast,30,2012-10-08 00:06:00
8:53 PM,77.0,70.0,79,29.98,10.0,NNE,5.8,-,0.00,,Overcast,30,2012-10-08 00:53:00
9:53 PM,75.9,69.1,79,30.00,10.0,NNE,4.6,-,N/A,,Overcast,20,2012-10-08 01:53:00
10:53 PM,75.0,66.9,76,30.01,10.0,NNE,6.9,-,N/A,,Clear,20,2012-10-08 02:53:00
11:53 PM,73.9,66.0,76,30.00,10.0,North,5.8,-,N/A,,Clear,360,2012-10-08 03:53:00